CAPE
0 0 0 0 0 0 0 0 3 0 0 4 272 328 743 1433 1542 1413 399 661 602 1629 2144 2401 2378 2571 2701 3604 3834 3827 3959 4138
0 0 0 0 0 0 0 47 45 33 73 157 289 274 836 1409 1797 2098 1280 780 484 1475 1719 2081 2083 2209 2613 3285 3538 3600 3374 3892
0 0 0 0 0 0 0 0 6 118 76 67 220 215 793 1261 1665 2301 2425 2103 1778 1434 1878 1840 1818 2190 2353 2352 2421 3056 3141 3359
0 0 0 0 0 0 2 31 0 17 78 13 110 267 502 1164 1278 1708 2377 2608 2582 2676 2693 3135 2840 2994 3127 2813 2469 2931 4131 4078
0 0 0 0 0 0 0 0 20 11 139 59 69 183 234 249 1484 1832 1834 1961 2308 2688 2987 3614 3883 4534 3848 3642 3380 2939 3973 3206
5 0 0 0 0 0 0 0 4 19 89 25 46 121 122 226 503 1414 1924 1968 2008 2330 2644 3872 3702 3757 3874 2954 3187 3152 3105 2843
0 5 1 0 0 0 0 0 0 0 0 0 134 141 147 260 480 543 1564 1664 1800 2595 3210 3239 3424 3458 4024 3661 3852 4097 3867 3566
0 5 0 0 0 0 0 0 0 0 0 0 7 13 6 371 370 844 1052 1280 1669 2057 2337 2514 2968 3753 3642 3820 3638 3602 3728 4052
3 8 0 0 0 0 0 0 0 1 0 12 5 6 25 258 256 851 1008 1218 1494 1836 2078 2586 2688 3197 3226 3372 3733 3891 4407 4605
0 64 15 18 67 1 2 18 0 4 1 1 2 18 12 149 208 624 866 1353 1401 1481 2227 2402 2162 2190 2975 2770 3873 3801 4273 4742
37 63 49 92 110 27 0 4 25 0 0 17 13 8 114 235 424 791 1041 1166 1229 1505 1899 2691 2582 2836 2965 2931 3273 3533 2877 3828
113 81 104 122 103 0 0 67 21 0 67 0 11 41 565 604 568 624 610 619 739 1101 1304 1051 1340 1722 2689 2563 3321 3160 3211 3439
61 46 80 125 69 0 5 144 64 26 23 144 322 775 553 465 422 383 327 274 326 387 564 498 547 616 1490 1976 2494 2464 2722 3279
108 172 88 102 20 8 176 54 80 137 82 134 430 435 387 359 250 135 92 32 3 12 57 40 194 589 1018 1456 1801 1842 1921 2032
182 357 554 75 9 50 98 4 0 44 91 121 207 131 224 212 48 4 0 0 0 0 7 102 320 534 680 1180 1353 1450 1488 1499
77 50 3 3 0 2 0 0 0 39 124 198 173 76 80 20 0 0 0 0 0 143 351 521 647 705 835 1038 1297 1298 1181 1212
36 22 14 0 7 0 1 0 3 68 44 58 12 2 0 0 1 0 66 46 213 413 447 493 533 671 573 745 947 780 788 712
51 44 131 135 27 6 12 7 5 9 5 0 2 8 5 9 206 223 332 490 476 399 343 425 361 278 349 313 280 260 303 208
111 0 0 1 12 8 0 0 68 31 3 6 4 0 0 223 334 385 245 410 530 554 384 205 174 174 158 244 132 111 30 42
CIN
0 0 0 0 0 0 0 0 -9 0 0 -9 -50 -32 -1 -2 -2 -5 -20 -6 -25 -14 -21 -28 -42 -40 -48 -35 -60 -54 -22 -1
0 0 0 0 0 0 0 -1 -3 -8 -4 -16 -21 -30 -4 -1 -1 -1 -29 -27 -12 -9 -10 -9 -11 -34 -31 -16 -50 -50 -33 -12
0 0 0 0 0 0 0 0 -2 -2 -8 -45 -39 -45 -5 -6 -13 -11 -10 -13 -12 -4 -5 -6 -5 -2 -43 -63 -60 -37 -49 -19
0 0 0 0 0 0 -1 -5 -1 -20 -11 -53 -35 -15 -3 -4 -11 -34 -31 -25 -20 -42 -11 -5 -3 -3 -10 -21 -54 -25 -14 -9
0 0 0 0 0 0 0 0 -9 -14 -9 -8 -48 -45 -73 -39 -5 -21 -23 -22 -22 -39 -43 -42 -31 -24 -12 -22 -14 -7 -14 -25
0 0 0 0 0 0 0 0 -5 -5 -1 -6 -15 -59 -89 -61 -27 -4 -20 -24 -2 -12 -48 -26 -31 -35 -27 -66 -9 -4 -35 -70
-1 -4 -1 0 0 0 0 0 0 0 0 0 -44 -70 -94 -55 -65 -26 -3 -2 -15 -8 -23 -35 -44 -41 -19 -4 0 -1 -3 -1
0 -2 0 0 0 0 0 0 0 0 0 0 -138 -193 -212 -69 -80 -20 -6 0 -4 -25 -48 -46 -47 -13 -2 -2 -7 -10 -12 -5
-7 -5 0 0 0 0 0 0 0 -24 0 -86 -114 -158 -177 -111 -107 -15 -5 -5 -3 -2 -9 -7 -18 -2 -17 -6 0 0 -1 0
0 -2 -1 -1 -2 -1 -35 -72 -4 -27 -22 -51 -112 -134 -214 -160 -178 -42 -20 -3 -1 -5 -4 -4 -2 -5 -6 -2 -1 0 0 0
-7 0 -3 -1 -3 -15 0 -58 -76 0 0 -77 -79 -126 -98 -133 -120 -47 -45 -40 -30 -7 -36 -31 -26 -7 -4 -2 -2 -1 0 0
-3 -2 -1 -4 -20 0 0 -70 -108 0 -164 -13 -117 -106 -31 -76 -90 -91 -102 -116 -77 -52 -38 -97 -72 -54 -3 -1 -2 -1 -1 -2
-1 -2 -1 -14 -29 0 -93 -82 -154 -180 -182 -93 -46 -38 -56 -119 -122 -102 -109 -168 -130 -105 -99 -120 -137 -142 -82 -56 -20 -46 -47 -22
-14 -2 -2 -56 -80 -81 -110 -228 -222 -184 -215 -196 -93 -91 -84 -89 -140 -136 -189 -233 -89 -80 -189 -205 -165 -139 -108 -85 -76 -89 -89 -91
-1 -18 -81 -122 -151 -221 -221 -43 -6 -261 -224 -234 -185 -164 -118 -142 -182 -111 0 0 0 0 -186 -173 -138 -132 -133 -84 -68 -64 -64 -80
-49 -51 -85 -35 0 -114 -15 0 0 -283 -234 -215 -205 -167 -164 -226 0 0 0 0 0 -106 -87 -77 -63 -61 -55 -35 -13 -13 -24 -15
-76 -118 -84 0 -232 -64 -99 0 -309 -259 -286 -287 -322 -175 0 0 -106 0 -157 -175 -93 -61 -59 -64 -55 -25 -36 -17 -3 -12 -15 -35
-20 -59 -82 -96 -169 -82 -230 -204 -290 -310 -238 -107 -242 -280 -252 -226 -60 -64 -41 -15 -21 -33 -45 -54 -58 -65 -44 -53 -58 -60 -55 -84
-22 -4 -2 -6 -230 -159 0 -9 -200 -237 -269 -245 -178 0 0 -39 -6 -6 -36 -6 -2 -1 -21 -80 -102 -106 -110 -66 -92 -99 -6 -172
Wind_Speed
nan nan nan nan nan nan nan nan nan nan nan nan 31 13 24 24 23 24 19 19 17 40 31 25 25 31 34 34 34 31 32 30
nan nan nan nan nan nan nan nan nan nan nan 26 30 21 43 32 24 20 23 23 19 36 32 26 24 31 35 33 33 32 31 36
nan nan nan nan nan nan nan nan nan 8 nan nan 25 24 37 36 17 26 26 28 30 33 33 27 20 30 37 31 26 31 34 34
nan nan nan nan nan nan nan nan nan nan nan nan 27 29 32 41 29 21 30 25 27 34 31 26 22 22 35 35 27 29 35 38
nan nan nan nan nan nan nan nan nan nan 20 nan nan 43 24 21 38 28 21 30 31 30 28 30 32 33 39 35 25 22 35 37
nan nan nan nan nan nan nan nan nan nan nan nan nan 43 30 24 23 33 28 21 32 35 28 29 31 34 36 27 30 27 43 43
nan nan nan nan nan nan nan nan nan nan nan nan 41 38 27 28 21 10 40 27 33 42 36 33 34 34 30 38 36 39 43 46
nan nan nan nan nan nan nan nan nan nan nan nan nan nan nan 31 22 20 27 24 27 37 38 36 40 38 39 46 46 47 45 41
nan nan nan nan nan nan nan nan nan nan nan nan nan nan nan 33 25 30 24 24 24 29 35 42 40 42 42 44 45 46 44 41
nan nan nan nan nan nan nan nan nan nan nan nan nan nan nan 45 31 34 27 25 26 31 37 37 38 43 48 46 44 42 42 43
nan nan nan nan 17 nan nan nan nan nan nan nan nan nan 43 50 41 33 32 28 28 35 35 39 41 45 46 44 44 44 46 45
21 nan 16 16 44 nan nan nan nan nan nan nan nan nan 49 54 51 44 37 31 31 34 37 35 34 39 43 44 47 51 48 48
nan nan nan 36 nan nan nan 41 nan nan nan 29 42 49 55 56 48 44 42 39 34 34 35 35 35 35 36 40 40 45 45 45
30 22 nan 41 nan nan 50 nan nan 37 nan 35 46 51 53 54 49 44 nan nan nan nan nan nan 33 33 32 33 38 38 37 35
31 34 44 nan nan nan nan nan nan nan nan 44 40 46 54 50 nan nan nan nan nan nan nan 32 33 33 31 32 34 35 35 34
nan nan nan nan nan nan nan nan nan nan 38 48 41 nan nan nan nan nan nan nan nan 37 36 35 34 33 32 33 35 34 35 36
nan nan nan nan nan nan nan nan nan nan nan nan nan nan nan nan nan nan nan nan 36 37 36 35 35 35 35 36 37 38 39 39
nan nan 51 42 nan nan nan nan nan nan nan nan nan nan nan nan 39 38 35 35 35 34 33 33 35 37 39 40 41 41 40 42
52 nan nan nan nan nan nan nan nan nan nan nan nan nan nan 37 37 37 37 34 33 32 33 34 34 35 38 40 40 41 nan nan
Wind_Direction
nan nan nan nan nan nan nan nan nan nan nan nan 285 296 301 254 270 199 202 244 288 302 321 327 329 335 337 343 346 348 350 350
nan nan nan nan nan nan nan nan nan nan nan 248 266 297 296 283 266 225 228 229 275 289 310 298 329 325 325 330 341 340 343 340
nan nan nan nan nan nan nan nan nan 292 nan nan 296 299 301 304 287 240 228 231 240 252 285 285 303 309 305 309 314 325 329 329
nan nan nan nan nan nan nan nan nan nan nan nan 275 280 281 298 310 286 246 248 250 253 244 274 265 276 291 304 318 317 311 316
nan nan nan nan nan nan nan nan nan nan 275 nan nan 289 299 292 307 313 289 261 267 271 270 261 264 275 273 272 289 316 306 312
nan nan nan nan nan nan nan nan nan nan nan nan nan 283 306 292 293 307 306 267 272 278 276 271 267 264 257 304 300 303 303 308
nan nan nan nan nan nan nan nan nan nan nan nan 273 286 301 301 300 291 301 298 262 267 262 256 262 274 279 284 289 281 286 299
nan nan nan nan nan nan nan nan nan nan nan nan nan nan nan 307 303 288 292 295 280 261 268 270 269 272 272 274 280 285 291 293
nan nan nan nan nan nan nan nan nan nan nan nan nan nan nan 309 307 303 293 285 271 287 273 270 272 273 277 279 282 284 288 292
nan nan nan nan nan nan nan nan nan nan nan nan nan nan nan 309 323 303 296 289 280 262 272 271 272 276 274 279 281 282 289 290
nan nan nan nan 277 nan nan nan nan nan nan nan nan nan 311 308 314 302 292 287 276 275 273 264 257 263 273 275 272 280 283 285
224 nan 200 216 250 nan nan nan nan nan nan nan nan nan 299 307 314 307 295 286 278 279 279 271 262 258 261 267 274 279 281 282
nan nan nan 230 nan nan nan 257 nan nan nan 271 285 295 300 303 306 298 296 292 284 280 283 276 271 263 262 261 261 265 266 269
211 207 nan 237 nan nan 258 nan nan 264 nan 282 292 298 300 304 305 295 nan nan nan nan nan nan 269 269 269 269 267 267 267 268
232 237 245 nan nan nan nan nan nan nan nan 291 295 300 302 304 nan nan nan nan nan nan nan 279 273 271 273 274 273 274 276 279
nan nan nan nan nan nan nan nan nan nan 282 290 296 nan nan nan nan nan nan nan nan 284 283 279 277 275 273 272 275 278 280 281
nan nan nan nan nan nan nan nan nan nan nan nan nan nan nan nan nan nan nan nan 280 278 279 279 279 281 281 280 279 278 278 278
nan nan 254 251 nan nan nan nan nan nan nan nan nan nan nan nan 283 282 283 281 279 279 280 280 280 280 281 281 281 280 281 283
248 nan nan nan nan nan nan nan nan nan nan nan nan nan nan 284 286 286 287 285 283 281 279 280 282 284 286 285 285 285 nan nan